Regional Weather Roundup
Issued by NWS Boston, MA

Current Version | Previous Version | Text Only | Print | Product List | Glossary Off
Versions: 1 2 3 4 5 6 7 8 9 10 11 12 13 14 15 16 17 18 19 20 21 22 23 24 25 26 27 28 29 30 31 32 33 34 35 36 37 38 39 40 41 42 43 44 45 46 47 48 49 50
000 ASUS41 KBOX 292210 RWRBOX REGIONAL WEATHER ROUNDUP NATIONAL WEATHER SERVICE TAUNTON MA 500 PM EST THU JAN 29 2015 NOTE: "FAIR" INDICATES FEW OR NO CLOUDS BELOW 12,000 FEET WITH NO SIGNIFICANT WEATHER AND/OR OBSTRUCTIONS TO VISIBILITY. THE FOLLOWING OBSERVATION LOCATIONS DO NOT REPORT PRESENT WEATHER...PROVINCETOWN... SMITHFIELD...BLOCK ISLAND...KEENE...AND OXFORD. MAZALL-292300- EASTERN MASSACHUSETTS CITY SKY/WX TMP DP RH WIND PRES REMARKS BOSTON MOCLDY 28 20 71 E3 30.18F BEVERLY CLEAR 29 18 63 SE3 30.17F LAWRENCE CLEAR 30 18 60 SE5 30.18S WCI 25 BEDFORD CLEAR 26 17 68 E6 30.15F WCI 19 BLUE HILL N/A 27 17 66 E6 30.12F WCI 20 NORWOOD CLEAR 26 16 65 E5 30.17S WCI 20 MARSHFIELD CLEAR 30 25 80 CALM 30.19F PLYMOUTH CLEAR 27 21 78 CALM 30.17F TAUNTON MIX PCPN 31 14 49 S6 30.17F WCI 25 NEW BEDFORD CLEAR 30 18 60 S5 30.17F WCI 25 $$ MAZALL-292300- CAPE COD AND THE ISLANDS CITY SKY/WX TMP DP RH WIND PRES REMARKS FALMOUTH CLEAR 28 19 69 SW5 30.18S WCI 23 HYANNIS CLEAR 27 23 85 CALM 30.17S CHATHAM CLEAR 29 20 69 CALM 30.19S NANTUCKET CLEAR 32 23 69 N5 30.18S WCI 27 MARTHAS VNYRD CLEAR 29 18 63 W3 30.18F $$ MAZALL-292300- CENTRAL AND WESTERN MASSACHUSETTS CITY SKY/WX TMP DP RH WIND PRES REMARKS WORCESTER CLEAR 27 10 49 SE7 30.10F WCI 19 FITCHBURG CLEAR 30 11 45 SE3 30.14F ORANGE PTCLDY 28 5 37 S5 30.12S WCI 23 SPRINGFIELD CLOUDY 27 3 35 SE1 30.13F WESTFIELD MOCLDY 30 2 30 S5 30.13F WCI 25 NORTH ADAMS CLOUDY 34 -7 17 E9G24 30.05F WCI 27 PITTSFIELD CLOUDY 30 0 27 SE10 30.02S WCI 21 $$ RIZALL-292300- RHODE ISLAND CITY SKY/WX TMP DP RH WIND PRES REMARKS PROVIDENCE MOCLDY 27 14 58 S6 30.18F WCI 20 NEWPORT CLEAR 28 17 63 S3 30.18F BLOCK ISLAND PTCLDY 28 18 64 S3 30.17F SMITHFIELD CLEAR 28 10 47 CALM 30.14F WESTERLY PTCLDY 29 20 69 CALM 30.19S $$ CTZALL-292300- CONNECTICUT CITY SKY/WX TMP DP RH WIND PRES REMARKS BRADLEY INTL MOCLDY 29 8 41 SE7 30.14F WCI 22 HARTFORD MOCLDY 30 8 39 S6 30.16F WCI 24 BRIDGEPORT CLOUDY 29 19 66 SE9 30.16F WCI 20 DANBURY CLOUDY 29 6 38 S8 30.13F WCI 21 GROTON PTCLDY 28 22 78 SE8 30.18F WCI 20 NEW HAVEN CLOUDY 31 20 63 SE7 30.16F WCI 24 CHESTER MOCLDY 30 19 64 S5 30.15F WCI 25 MERIDEN MOCLDY 29 12 49 S6 30.16F WCI 23 WILLIMANTIC PTCLDY 31 9 39 S6 30.17S WCI 25 OXFORD CLOUDY 27 3 36 S9 30.10F WCI 17 $$ MEZ002-015-021-024-NHZ003-005-008-011-012-014-VTZ005-008-292300- NORTHERN NEW ENGLAND CITY SKY/WX TMP DP RH WIND PRES REMARKS PORTLAND ME PTCLDY 23 12 62 CALM 30.18F BANGOR ME PTCLDY 16 4 59 CALM 30.17F CONCORD NH CLEAR 30 1 29 S6 30.14S WCI 24 MANCHESTER NH MOCLDY 29 13 51 S6 30.14S WCI 23 NASHUA NH CLEAR 25 13 60 CALM 30.16S PORTSMOUTH NH PTCLDY 26 16 64 E3 30.16S JAFFREY NH PTCLDY 28 2 32 SE3 30.09S KEENE NH PTCLDY 28 9 43 CALM 30.11F BURLINGTON VT CLOUDY 30 2 30 S12 29.98F WCI 20 MT. WASHINGTON MOCLDY 12 -18 24 S46 N/A WCI -13 $$ NYZ052-076-292300- EASTERN NEW YORK CITY SKY/WX TMP DP RH WIND PRES REMARKS ALBANY CLOUDY 30 5 34 S15G21 30.04F WCI 19 NEW YORK CITY CLOUDY 30 21 69 S12 30.15F WCI 20 $$ ANZALL-292300- MARINE OBSERVATIONS STATION/POSITION TIME TEMP WIND PRES VSBY WAVE AIR SEA DIR/SP/G HT/PER (UTC) (F) (DEG/KT/KT) (MB) (MI) (FT/S) BOSTON BUOY 2150 31 40 200/ 2/ 8 1022.0F 3/10 BUZZARDS BAY 2100 240/ 2/ 3 1023.1F NANTUCKET SOUND NOT AVBL MASS BAY-STELLWA 2104 29 41 20/ 2/ 4 N/A 1 7/8 3/11 ISLE OF SHOALS 2100 30 CALM / 2 1021.6F S OF BLOCK IS 2108 42 N/A 2/11 $$ ......................KEY......................... SKY/WX - SKY CONDITION/PRESENT WEATHER TMP - TEMPERATURE IN FAHRENHEIT DWPT - DEWPOINT IN FAHRENHEIT RH - RELATIVE HUMIDITY IN PERCENT WIND - DIRECTION AND SPEED IN MPH PRES - MEAN SEA LEVEL PRESSURE IN INCHES OF HG WCI - WIND CHILL INDEX VSB - VISIBILITY IN MILES HX - HEAT INDEX TC - TEMPERATURE IN CELSIUS VRB - VARIABLE WIND DIRECTION N/A - NOT AVAILABLE

USA.gov is the U.S. government's official web portal to all federal, state and local government web resources and services.